GFSMW_925_thetae_132.txt.gz
Theta_e
306 305 304 303 303 302 302 301 301 301 301 302 303 305 305 309 309 306 305 305 305 307 309 310 312 314 317 321 324 328 332 334 332 330 332 329 327 335 337 338 337 337 338
308 306 305 305 304 303 301 301 301 300 300 300 301 301 302 304 304 303 303 302 303 304 305 307 308 310 312 314 318 322 322 326 330 332 332 334 332 333 334 336 336 337 337
310 308 306 304 302 300 300 299 299 298 298 299 300 301 302 302 302 301 301 301 301 302 303 304 305 307 308 310 312 315 318 321 322 328 331 333 335 334 335 335 336 336 336
309 308 306 304 303 301 300 299 299 298 297 297 298 298 300 300 300 300 299 300 300 300 300 301 302 302 304 306 308 309 311 313 316 320 323 329 331 334 335 332 333 333 334
309 308 307 305 303 300 299 298 297 297 295 296 296 297 297 297 297 298 297 298 298 299 298 298 298 299 299 301 302 303 306 310 312 315 317 320 328 331 333 332 331 331 330
310 309 306 303 301 299 298 297 297 296 295 295 295 295 295 295 295 295 295 296 296 297 297 296 295 296 297 298 299 300 302 303 305 308 311 314 319 327 330 332 331 330 329
311 309 306 303 299 298 297 296 296 296 295 294 293 294 293 293 293 292 293 293 293 294 294 294 294 294 295 295 296 298 299 300 302 304 306 310 314 317 318 326 332 333 330
309 307 304 301 299 297 296 295 295 294 293 292 292 291 290 291 291 291 291 291 290 291 291 291 292 293 293 293 294 295 296 298 299 301 303 304 307 311 316 317 326 333 332
307 306 302 299 297 296 295 294 293 293 291 291 290 290 289 289 289 289 289 289 288 289 289 290 290 291 291 292 292 293 294 295 296 298 301 302 304 306 310 315 317 327 332
305 303 300 297 296 295 294 293 292 291 291 290 289 289 288 288 288 288 287 287 287 287 288 288 289 289 290 290 291 291 292 293 294 296 298 300 303 304 306 310 315 320 326
305 300 299 296 295 294 293 292 291 290 290 290 289 289 288 288 287 287 286 286 286 286 286 287 288 288 288 289 289 290 290 292 294 295 297 298 301 302 305 306 311 316 323
302 298 296 296 295 294 293 292 291 290 289 289 289 288 287 287 287 286 286 285 286 286 285 286 286 287 287 287 288 288 289 291 292 293 294 296 297 299 304 306 307 312 318
300 297 296 295 294 292 291 290 290 289 289 288 288 288 287 286 285 285 285 285 285 285 285 285 285 287 287 286 286 287 287 287 289 291 293 294 296 299 301 303 307 309 313
299 298 297 294 292 290 290 288 286 286 286 286 285 285 285 284 284 284 284 284 284 284 284 284 284 286 285 285 285 286 285 285 286 287 289 294 295 297 299 300 306 309 311
299 297 294 293 291 290 288 286 285 284 284 284 283 282 283 282 282 282 283 283 284 283 283 283 283 284 284 283 283 285 284 284 283 284 285 286 288 291 294 297 302 305 311
296 293 292 292 290 288 286 285 284 283 283 283 282 281 281 281 281 281 282 282 282 282 281 281 282 282 282 281 281 282 283 282 282 282 283 284 285 289 289 289 288 294 298
293 292 292 290 288 287 285 284 283 283 282 282 281 281 281 281 281 281 281 282 282 281 281 280 280 280 280 280 280 280 281 280 280 281 281 282 283 285 286 286 286 286 287
293 291 289 288 286 286 284 283 282 282 282 281 281 280 280 280 280 280 280 281 281 281 280 279 279 279 279 279 279 279 279 279 278 278 280 281 281 282 283 284 284 284 284
290 288 287 286 285 285 284 283 282 282 281 281 281 280 280 280 280 280 280 280 280 280 279 278 278 278 278 278 278 278 278 278 277 277 278 278 279 280 280 281 282 282 283
287 286 286 285 285 285 284 283 282 281 280 280 280 280 280 280 280 280 279 279 280 279 279 278 278 277 277 277 276 276 276 276 277 276 276 277 278 278 278 279 280 281 282
286 286 285 285 285 285 284 283 282 280 280 280 279 279 280 280 280 280 279 279 279 279 279 279 278 277 276 276 276 275 275 275 274 275 275 275 275 276 276 277 277 278 279
286 286 286 285 284 283 283 283 282 281 281 279 279 279 279 280 280 280 280 279 279 279 279 278 278 277 276 275 275 274 273 274 274 273 273 273 274 274 274 274 275 276 278
286 286 286 285 284 284 283 282 282 281 281 280 279 279 278 279 279 279 280 280 279 279 278 278 278 277 276 275 275 274 273 273 273 273 273 273 273 273 273 273 273 274 275
286 286 285 285 284 284 283 283 282 281 281 280 279 279 278 278 279 279 278 278 278 278 278 277 277 276 275 274 273 273 273 273 273 273 273 273 273 273 272 273 272 272 273
285 285 285 285 284 283 283 282 281 281 280 279 279 279 278 278 277 276 277 277 275 276 276 276 276 275 274 273 273 272 272 272 272 273 273 273 272 273 272 272 272 272 272
285 285 285 284 283 282 281 281 281 280 280 279 279 278 278 277 277 277 276 274 274 273 273 274 274 274 273 272 272 272 272 272 272 273 273 272 272 272 272 271 271 271 271

GFSMW_925_thetae_135.txt.gz
Theta_e
311 310 310 309 309 307 307 306 306 305 305 306 306 307 307 310 309 308 307 307 307 309 309 311 312 314 316 318 320 323 327 328 333 333 333 333 334 334 335 337 338 338 337
312 311 311 310 308 307 306 306 305 304 304 304 305 306 306 306 307 306 306 305 305 306 306 308 309 310 312 313 316 318 321 323 326 330 331 334 333 333 332 330 330 331 330
314 312 311 309 308 306 306 305 305 304 303 303 304 305 305 306 305 304 304 304 304 304 304 305 306 306 307 309 311 313 315 317 319 322 326 332 333 331 331 328 329 324 331
315 313 311 310 309 307 306 304 303 301 301 301 302 303 303 303 303 303 303 302 303 302 303 303 302 302 303 304 306 308 309 311 314 316 318 322 327 329 332 330 333 333 334
314 313 312 310 306 305 303 303 302 301 301 300 300 301 301 300 300 300 300 300 300 300 301 301 299 299 299 300 301 302 304 305 307 310 314 317 319 321 330 332 331 330 333
314 313 310 308 305 303 303 302 302 300 300 299 298 299 298 298 298 298 298 298 298 298 298 296 296 295 296 297 297 298 299 300 302 304 306 310 315 316 322 328 330 330 328
315 313 312 308 304 303 302 301 300 299 298 298 297 296 296 295 295 295 294 294 294 294 293 293 293 293 294 294 295 295 297 298 299 300 302 304 308 311 315 319 321 324 327
315 312 310 307 303 302 301 300 299 298 297 296 296 295 294 293 293 292 292 292 291 291 291 291 291 291 292 293 293 293 294 296 297 298 299 301 302 305 308 313 319 321 321
313 311 307 305 303 301 300 299 298 297 296 295 295 294 293 292 291 291 290 290 290 289 289 289 290 290 291 291 292 292 293 293 294 295 296 298 300 302 304 307 311 317 319
311 310 306 303 301 300 299 298 297 296 296 295 295 294 292 291 291 290 289 288 288 288 288 288 289 289 289 289 290 290 291 291 292 293 295 296 297 300 302 304 306 310 315
311 309 306 302 300 299 298 297 296 295 295 294 294 293 291 290 289 289 288 288 288 288 287 287 288 288 288 288 288 288 289 290 290 291 293 294 295 297 300 302 304 306 310
312 307 304 302 300 299 298 297 296 295 293 293 293 292 291 290 289 288 288 287 287 287 287 287 287 287 287 287 287 288 288 287 287 288 289 292 292 296 298 300 302 305 307
310 305 302 301 300 297 296 295 293 292 292 292 291 290 289 288 288 287 287 286 286 286 286 286 286 286 285 285 286 287 286 286 286 286 286 288 289 295 296 298 302 303 306
307 304 302 300 298 296 294 292 290 289 289 288 287 287 287 286 286 286 286 286 285 285 284 285 285 285 284 284 284 285 285 284 285 285 285 285 286 290 291 295 298 300 304
306 304 302 299 297 294 292 290 289 288 288 287 285 285 285 285 284 284 285 285 285 284 283 283 283 283 282 282 282 284 283 283 283 283 283 283 284 287 288 289 290 294 300
305 302 299 297 294 291 290 288 287 287 286 285 284 283 283 283 283 283 284 284 283 283 282 281 282 281 281 280 281 282 282 281 280 281 281 281 281 283 285 285 286 286 288
302 298 295 293 291 289 288 287 286 285 284 283 283 282 282 282 282 283 283 282 282 282 281 280 280 280 279 279 280 280 281 280 279 278 279 280 280 281 282 283 283 284 285
298 295 293 291 289 288 286 285 284 284 284 283 282 282 282 282 282 282 282 282 281 281 280 280 279 279 278 278 278 279 279 279 277 277 278 278 278 279 280 281 282 283 283
294 292 290 288 287 286 285 284 284 284 283 282 282 281 282 281 282 282 282 281 281 281 281 280 279 278 277 277 277 278 278 277 277 276 276 276 277 278 278 279 281 281 281
289 288 287 287 286 286 285 284 283 282 282 282 282 282 282 282 281 281 281 281 281 281 281 280 279 278 277 277 276 276 277 277 276 276 275 276 276 277 277 277 278 279 280
288 287 286 286 286 286 285 283 282 282 281 281 281 281 282 281 282 282 281 281 282 281 281 281 280 278 277 276 276 275 275 276 276 275 275 275 276 276 276 276 276 277 278
288 287 287 286 285 285 284 283 282 281 281 280 281 281 281 281 282 282 282 281 281 281 281 281 280 278 277 276 276 275 275 275 276 275 275 275 275 275 275 275 275 276 277
289 288 287 286 286 285 284 284 283 283 282 281 280 280 281 281 281 281 281 281 281 281 280 280 279 278 276 275 275 275 275 275 276 275 275 274 274 274 274 274 274 274 275
289 288 286 287 287 286 285 283 283 282 282 281 281 280 280 280 280 280 279 278 279 279 279 279 277 277 275 274 274 274 274 274 275 276 275 275 274 274 274 274 273 273 274
288 287 287 287 286 286 285 284 283 283 282 281 281 280 280 280 278 277 277 277 275 275 276 276 276 274 273 273 273 274 273 274 275 276 276 275 275 274 274 274 273 272 273
287 287 287 287 285 285 284 283 283 282 281 281 281 280 280 280 280 279 276 274 273 273 273 273 273 273 272 272 272 273 273 273 274 275 274 274 274 274 274 274 274 273 272

GFSMW_925_thetae_138.txt.gz
Theta_e
313 313 312 311 310 309 308 308 307 306 306 307 307 308 308 307 308 306 306 305 306 306 306 306 308 309 310 311 313 316 318 321 323 327 330 332 332 333 333 334 334 335 335
313 312 312 311 309 309 308 307 306 305 305 305 306 306 307 307 306 306 305 304 305 304 305 304 305 304 305 307 307 311 314 315 318 324 325 328 328 330 332 333 333 333 332
314 313 312 311 310 309 307 305 303 302 303 303 303 304 305 305 304 304 304 302 303 302 303 303 302 301 302 303 304 305 306 308 310 314 321 325 327 325 327 330 332 332 332
315 314 312 312 309 307 305 304 303 303 302 301 302 302 302 302 302 302 300 301 300 301 300 299 297 298 297 299 300 301 301 303 305 308 312 315 320 322 323 324 324 328 331
316 314 313 310 307 305 304 304 302 302 301 300 300 300 299 300 299 298 298 297 297 297 296 294 294 294 295 295 295 296 297 298 300 302 305 306 310 314 318 317 318 323 328
315 314 312 309 306 305 304 303 302 301 300 299 299 298 297 297 297 295 295 294 294 293 292 292 292 292 292 293 294 294 295 296 297 298 300 302 306 309 311 314 315 317 318
315 314 312 309 306 304 303 302 301 300 299 298 297 297 296 295 294 293 293 292 292 291 291 290 290 291 291 291 292 292 293 294 295 296 298 298 299 301 303 306 310 314 317
316 315 312 309 305 303 302 301 300 299 298 297 297 295 294 294 293 292 291 290 290 290 289 289 289 289 290 290 290 291 291 292 293 294 295 296 297 298 300 303 306 308 310
316 314 311 307 304 302 301 300 299 298 298 297 296 295 293 292 292 290 290 289 289 289 288 288 288 288 289 289 289 289 290 290 291 292 293 294 295 296 298 300 301 304 308
315 313 309 305 303 302 300 299 298 298 297 296 295 294 292 291 290 290 289 288 288 288 288 287 287 288 287 287 287 288 288 289 288 289 289 290 292 294 296 298 300 302 305
314 312 308 304 303 301 300 298 297 297 296 295 294 293 292 291 289 289 288 288 287 287 287 287 286 287 286 285 285 287 287 287 287 287 287 287 288 292 291 294 297 301 303
314 310 306 303 302 301 300 299 297 295 295 294 294 292 291 290 289 288 287 287 286 286 286 286 285 285 284 284 284 286 285 285 285 285 285 285 287 287 289 292 295 299 300
313 310 305 303 302 300 298 297 295 294 293 292 291 289 289 288 288 287 287 286 286 285 285 284 284 284 282 283 283 285 283 283 283 283 284 284 284 286 288 291 294 297 299
311 307 305 303 300 298 296 293 291 291 290 289 289 288 287 286 286 286 286 286 285 283 283 283 282 282 280 281 282 283 282 281 281 281 281 282 283 285 286 287 287 290 294
308 306 304 302 298 296 293 291 290 289 288 287 286 286 285 285 285 285 285 284 284 282 281 282 281 279 280 280 281 281 281 280 279 279 279 280 281 282 284 284 284 286 287
308 305 302 300 298 294 291 290 289 288 287 285 283 284 283 283 283 283 283 283 282 282 280 280 280 279 279 279 280 280 279 278 277 278 277 278 279 280 282 283 283 284 285
306 303 300 296 293 290 289 288 287 286 285 284 283 283 282 282 282 283 282 282 281 281 280 279 278 278 278 279 279 279 278 277 276 276 277 277 278 279 279 281 282 282 283
302 298 295 292 290 289 287 287 286 285 284 283 282 282 282 282 282 282 282 282 282 281 280 279 278 277 278 278 278 279 277 276 276 276 277 277 277 278 278 278 279 280 281
295 293 292 290 288 286 286 285 285 284 283 282 282 282 282 282 282 282 281 282 281 282 281 279 278 277 277 278 277 276 277 277 276 276 276 277 277 277 277 277 278 278 279
291 289 289 288 286 286 285 284 283 282 282 282 282 282 282 281 282 282 281 282 282 281 281 280 278 277 276 277 277 276 276 276 276 275 275 276 277 277 277 276 276 277 277
289 288 287 287 286 286 285 283 282 282 281 281 282 282 282 282 282 281 281 282 282 282 281 280 279 276 276 276 277 277 276 276 276 276 275 275 276 276 276 275 276 276 276
289 288 287 286 286 286 284 283 281 281 281 281 281 281 282 282 282 282 282 282 282 281 280 280 278 277 275 276 276 276 276 276 276 276 275 275 275 275 275 274 275 275 275
288 288 287 286 286 285 284 283 282 282 281 281 281 282 282 281 280 280 279 279 280 280 280 278 277 275 274 274 275 274 275 275 276 276 276 275 275 275 274 274 273 273 274
289 288 287 287 287 286 285 284 283 283 282 282 281 281 280 280 280 278 276 276 276 276 276 277 274 273 273 273 274 274 274 274 275 275 274 274 274 274 274 273 273 272 273
290 288 288 288 287 286 285 284 284 283 282 281 281 281 280 278 277 277 276 274 274 274 273 273 273 272 272 273 274 274 274 274 274 274 273 273 273 272 272 272 272 272 272
288 288 288 288 287 286 285 284 284 283 282 282 282 281 281 280 278 277 275 274 274 273 273 272 272 272 272 272 273 274 273 273 273 272 272 271 271 271 271 271 271 271 271

GFSMW_925_thetae_141.txt.gz
Theta_e
311 311 310 309 309 308 307 305 304 304 305 306 306 306 307 305 305 305 304 303 303 303 304 303 303 302 302 304 305 306 308 312 314 321 323 323 328 331 331 331 332 332 330
311 311 310 309 308 307 306 303 302 302 303 303 304 304 304 302 302 302 301 301 300 300 300 299 298 298 299 299 300 301 302 305 307 311 316 321 324 326 327 328 329 329 330
311 311 309 309 308 307 304 303 302 302 301 302 301 301 301 301 300 299 298 298 298 296 296 295 295 294 295 295 296 297 298 299 301 304 309 316 321 317 319 325 325 327 332
311 310 309 308 307 305 304 302 302 301 300 300 299 299 299 298 297 296 296 295 294 293 292 292 292 292 293 293 294 295 295 297 298 300 304 302 305 316 318 319 321 320 316
311 310 308 307 306 304 303 302 301 300 299 298 298 297 296 296 295 294 293 292 292 291 290 290 290 291 291 292 292 293 293 294 296 297 298 299 301 304 311 314 314 313 316
310 309 306 305 304 304 303 301 300 299 298 297 296 295 295 294 293 292 291 290 290 290 289 289 289 290 290 290 291 291 292 292 293 294 296 298 299 301 302 305 305 305 308
311 308 305 303 304 303 302 300 299 298 297 296 295 294 293 292 291 290 289 289 289 289 288 288 288 289 289 289 289 289 290 291 291 292 293 294 296 297 299 300 302 303 304
311 309 306 303 303 302 301 300 299 298 297 296 294 293 292 291 290 289 289 289 288 288 288 287 288 287 287 286 287 288 289 289 289 290 291 292 293 294 296 298 299 301 301
311 309 304 303 302 301 300 299 298 297 296 295 294 292 291 290 289 289 289 288 287 288 287 287 287 286 285 285 286 287 287 287 287 288 287 287 289 291 292 295 297 299 301
312 307 304 302 301 301 299 298 298 297 296 295 293 292 291 290 289 288 288 287 287 287 286 285 286 284 284 284 285 286 285 285 285 285 286 286 286 287 288 292 294 296 298
314 308 303 301 300 300 299 298 297 296 295 294 293 291 290 289 288 288 287 286 286 286 285 284 284 282 283 283 284 284 283 283 282 283 284 284 284 284 286 287 289 291 294
313 306 304 301 300 299 298 297 296 295 294 293 291 290 289 288 287 287 286 285 284 284 284 282 282 280 281 282 283 283 281 281 280 280 281 282 282 284 286 287 290 291 293
311 307 303 302 301 299 298 296 295 293 291 290 289 288 287 287 287 286 285 284 283 283 283 280 280 280 280 281 282 282 280 279 279 279 279 280 281 283 284 286 285 287 287
311 305 303 302 299 297 294 292 291 290 289 288 287 286 286 286 286 285 284 283 281 281 281 279 279 279 280 281 280 280 278 277 277 278 278 279 281 282 283 284 284 284 286
308 305 303 301 298 294 291 290 289 288 288 287 286 285 284 284 284 284 283 282 280 279 280 279 278 279 279 280 279 278 277 276 276 277 277 278 280 281 281 282 282 283 285
306 303 303 299 294 291 290 289 288 287 286 283 284 283 283 283 283 282 281 280 279 278 278 278 278 278 279 280 279 277 276 276 276 276 276 277 278 278 279 280 280 280 283
306 305 300 295 291 289 289 288 286 286 284 283 283 282 282 282 282 281 281 280 279 278 278 277 278 278 279 278 278 278 275 275 276 276 276 277 277 278 277 279 279 279 279
301 294 291 289 289 288 287 286 286 283 282 283 282 282 282 282 282 282 282 282 280 278 278 277 277 278 278 278 277 276 276 275 275 276 277 276 277 278 276 276 277 277 277
292 290 289 288 287 287 286 285 284 283 282 282 281 282 281 282 281 281 281 281 281 279 277 277 276 276 277 278 278 276 276 275 275 275 276 276 276 277 276 275 275 275 276
290 288 287 287 286 285 285 284 283 282 282 282 281 281 281 281 281 281 282 282 281 280 278 276 275 276 276 277 278 276 276 276 275 275 276 277 276 276 276 274 275 274 274
288 287 287 286 285 285 284 283 282 282 282 282 282 282 282 281 281 281 282 282 281 280 278 276 274 274 275 275 276 277 276 276 276 276 275 275 276 276 274 274 274 274 273
288 287 286 286 285 284 283 282 281 281 281 282 282 282 282 282 282 282 281 281 280 278 277 275 273 273 274 275 275 275 276 276 275 274 275 275 274 274 274 273 273 273 272
288 287 286 286 285 284 283 281 281 281 281 281 281 281 280 280 280 280 279 278 277 277 274 273 272 272 273 274 274 274 274 274 274 273 273 273 272 272 271 273 271 271 271
287 287 286 286 285 284 283 281 281 281 281 281 281 281 281 278 276 275 275 275 275 274 274 272 272 272 273 274 274 273 274 273 272 271 270 270 270 270 270 270 270 270 270
288 287 286 286 286 285 284 283 283 282 282 281 280 280 279 278 276 275 274 274 274 273 272 272 272 273 273 274 275 274 273 272 271 270 269 269 269 268 268 268 269 269 269
288 287 287 287 287 285 284 284 283 282 281 281 280 279 278 277 276 275 275 275 274 274 273 273 273 272 273 273 273 273 272 271 270 269 268 267 267 267 267 267 267 267 267

GFSMW_925_thetae_147.txt.gz
Theta_e
306 306 306 306 306 305 304 304 305 305 305 304 304 304 300 299 298 297 297 297 296 296 296 296 295 295 295 294 295 296 297 298 299 302 306 309 313 316 318 323 328 331 328
306 306 305 305 305 303 302 302 302 302 304 304 303 301 299 296 296 295 295 294 294 294 294 293 293 293 293 294 294 293 294 295 296 297 300 312 314 316 318 320 323 326 329
307 306 304 304 302 302 301 300 300 300 301 302 301 300 297 296 295 293 292 291 291 291 291 291 291 291 291 291 292 292 293 293 294 296 300 305 309 302 309 315 316 315 315
307 306 304 301 301 301 300 299 299 299 298 299 299 298 295 293 291 291 290 290 289 289 289 289 289 290 290 290 290 291 292 292 293 294 296 296 297 302 303 304 306 308 305
307 305 303 301 301 300 300 299 298 297 297 297 296 295 293 291 291 290 290 289 288 288 288 288 288 288 288 288 289 289 290 290 291 292 293 294 295 297 300 302 302 300 301
307 305 302 300 300 299 299 298 297 296 295 295 294 293 292 291 290 289 289 288 287 287 287 287 286 287 287 288 288 288 288 289 289 289 290 291 293 294 295 296 297 297 297
305 302 300 299 298 299 298 297 296 295 294 294 293 292 291 290 289 288 288 287 287 286 286 285 286 286 287 287 287 286 286 286 287 287 287 287 288 289 290 291 293 294 293
304 302 300 299 298 298 298 297 296 294 294 293 292 291 290 289 289 288 287 287 286 285 285 285 285 285 285 285 284 284 284 284 284 284 285 285 285 285 286 288 289 290 292
302 301 300 299 299 298 298 299 296 295 294 293 292 290 289 289 288 287 287 286 285 284 284 283 284 284 284 283 282 282 281 281 282 282 283 282 282 283 284 285 286 288 290
303 303 302 300 299 298 298 297 296 295 294 293 291 290 289 288 287 286 286 285 284 283 282 282 283 283 283 282 281 281 280 280 280 280 280 281 282 283 284 284 286 287 287
306 303 300 299 298 298 297 296 295 295 293 292 291 290 288 287 286 285 284 284 283 281 280 281 281 281 281 280 280 279 279 279 279 279 280 280 281 282 282 284 284 284 284
306 302 300 298 297 297 296 296 295 294 293 292 290 288 287 287 286 284 283 283 282 280 280 280 280 279 279 278 278 278 278 278 278 278 279 280 280 281 282 282 282 282 282
306 301 299 298 298 297 296 295 295 293 292 290 289 287 287 286 285 284 282 282 280 279 279 280 280 278 278 277 277 277 277 277 277 278 278 280 279 280 281 281 281 280 282
306 301 300 300 299 297 296 295 293 292 291 289 287 287 286 285 284 282 280 280 279 279 279 280 280 279 277 277 277 277 277 276 276 277 277 278 278 279 280 280 279 279 280
307 303 302 300 299 297 295 291 291 289 288 287 286 285 285 284 283 281 279 279 278 279 279 279 279 279 278 277 276 276 276 276 276 276 276 277 278 278 278 278 278 278 279
306 303 301 299 297 294 291 289 288 289 288 286 285 284 284 283 281 279 278 278 278 278 278 278 278 278 278 277 276 276 276 276 276 276 276 276 276 275 275 276 276 277 278
304 302 300 298 294 291 290 288 289 287 286 285 284 283 283 281 280 279 278 277 278 278 278 278 278 278 278 277 276 276 276 277 276 276 275 275 276 275 274 274 274 273 275
303 300 298 294 290 289 288 289 287 285 284 283 283 282 281 280 280 279 277 276 276 277 278 278 278 278 278 277 276 275 275 276 276 276 276 275 275 275 273 272 273 272 272
292 296 294 290 289 288 287 288 284 284 282 282 282 282 281 281 280 278 278 277 277 276 276 276 277 278 278 277 276 275 275 275 275 275 276 276 275 275 273 271 271 271 271
289 289 289 289 288 286 287 285 284 283 282 282 282 282 281 281 281 280 278 276 276 275 275 275 276 276 277 278 276 274 274 273 273 273 274 275 275 274 273 271 271 270 270
288 288 288 287 286 286 285 284 282 282 282 282 281 281 281 281 281 280 278 277 276 274 274 274 275 275 276 277 276 274 273 273 272 271 272 272 273 273 272 271 270 270 269
288 287 286 285 285 285 286 282 281 281 281 281 281 281 281 281 281 282 279 277 276 274 274 274 274 274 274 275 275 274 272 271 271 270 270 270 270 270 270 269 269 268 267
287 286 285 284 284 285 285 282 281 281 281 281 281 281 281 281 281 281 279 277 275 273 273 274 274 273 273 273 273 273 270 270 269 269 269 268 267 267 266 267 267 267 266
285 285 284 284 283 283 282 283 281 282 281 281 281 281 281 280 280 279 278 276 274 273 273 273 274 274 273 272 272 271 269 269 268 268 267 266 266 265 265 265 265 265 265
286 286 285 284 283 282 282 282 282 282 281 281 280 279 278 278 277 276 276 275 274 273 273 273 273 274 274 274 273 271 269 267 267 267 266 266 265 264 264 263 263 264 264
287 286 286 285 283 282 282 281 281 281 281 281 279 277 276 275 274 274 273 273 273 273 273 273 273 274 274 273 272 271 269 267 266 265 264 263 263 263 263 262 262 262 262

GFSMW_925_thetae_153.txt.gz
Theta_e
310 308 305 304 304 304 305 307 306 305 304 303 302 300 297 296 295 294 295 295 294 294 295 294 294 294 294 294 294 295 296 298 297 301 303 305 310 312 314 315 316 315 312
310 307 305 304 304 303 303 305 306 305 304 304 302 299 296 294 294 294 293 293 294 294 294 293 292 292 293 293 293 294 295 296 296 298 301 309 309 305 307 308 306 304 302
312 308 305 303 302 302 301 303 304 303 303 302 301 298 296 294 294 292 292 292 293 292 292 292 292 291 291 292 292 292 292 294 295 296 298 303 305 301 305 305 303 301 301
311 308 305 302 301 300 300 300 301 301 301 302 299 298 298 296 293 292 291 291 292 292 292 292 291 291 290 290 290 290 291 292 293 295 294 295 296 299 303 302 302 299 298
310 308 305 303 301 299 298 298 298 300 301 300 300 298 296 294 292 291 291 291 290 290 290 290 290 290 289 288 288 289 289 289 290 290 291 293 295 294 296 300 300 296 297
309 307 304 301 300 298 297 297 297 298 298 297 297 297 296 293 292 291 291 290 289 288 289 288 288 288 287 287 287 287 287 287 287 288 289 289 290 290 291 293 293 294 294
308 306 304 302 300 298 297 296 297 295 295 295 294 293 292 291 291 290 290 289 288 287 287 287 287 286 286 286 286 285 285 285 285 285 286 286 286 286 287 289 290 291 292
307 306 303 302 300 298 297 296 295 293 292 292 292 293 292 291 290 290 288 287 286 284 285 285 285 285 285 285 284 284 284 284 284 284 284 285 285 285 286 286 287 291 293
306 305 304 303 300 298 296 295 294 293 292 292 292 292 291 290 289 288 287 286 285 283 283 284 284 284 283 282 283 283 283 283 284 283 284 285 285 285 285 285 286 287 290
307 306 305 302 300 298 297 295 294 293 292 291 291 290 289 288 287 287 286 284 283 282 283 283 282 281 280 281 281 282 282 283 282 283 284 283 284 284 285 285 285 285 285
308 307 306 302 300 298 296 295 294 293 292 291 290 289 288 287 286 285 284 283 282 281 282 282 281 280 280 280 280 280 280 281 281 281 282 282 283 283 284 284 284 284 284
308 307 304 301 299 298 297 294 293 292 292 291 290 288 287 286 285 284 283 282 281 281 282 280 281 280 279 279 279 279 279 280 280 280 281 280 281 282 282 282 282 283 283
308 306 303 301 299 298 296 295 294 293 291 290 289 288 286 285 284 283 282 281 281 281 281 280 280 279 279 279 279 279 279 279 279 279 280 279 279 280 280 281 281 281 282
310 306 303 301 300 298 297 296 295 292 291 289 288 287 286 284 284 283 282 281 280 281 281 281 280 279 278 278 278 278 278 278 278 278 279 278 278 278 279 279 279 280 281
308 307 305 302 300 299 298 297 294 292 290 289 288 287 285 284 283 282 281 280 280 280 280 280 280 279 279 278 278 278 278 277 277 277 277 277 275 276 277 277 277 278 278
306 308 304 301 300 299 298 294 292 291 290 289 287 286 284 283 282 280 279 279 279 279 279 279 279 279 278 277 277 277 277 277 276 276 276 276 275 273 273 274 274 275 276
309 307 303 301 300 298 294 293 291 290 289 288 287 285 283 282 280 279 279 278 278 278 278 278 277 278 278 277 276 276 276 276 275 275 275 276 275 273 272 271 271 271 273
306 305 302 301 299 296 294 292 290 288 288 287 285 284 282 281 279 278 278 278 278 278 278 278 278 278 278 277 275 275 275 275 275 274 275 274 275 274 271 271 270 270 270
294 295 299 297 294 293 292 290 288 287 287 285 284 283 282 279 278 277 277 277 277 277 277 277 278 278 278 276 274 274 274 274 274 274 275 274 274 273 271 270 270 270 269
291 292 294 294 292 291 290 288 286 286 285 285 284 283 281 279 278 277 277 277 276 276 276 276 277 277 277 276 274 273 273 273 273 272 273 274 273 272 271 270 270 269 268
291 292 291 291 290 289 288 287 285 285 286 285 283 281 280 279 278 277 277 276 276 275 275 276 276 277 276 276 274 272 272 272 271 271 271 271 272 271 270 269 268 267 268
291 291 290 288 288 288 287 286 285 285 285 283 281 280 280 279 277 277 276 276 275 274 274 275 275 275 275 275 274 273 271 271 271 270 269 269 269 270 269 268 267 267 267
290 289 288 287 286 286 286 285 284 284 282 281 281 280 280 279 277 277 276 275 274 275 275 275 275 274 273 273 273 271 270 269 270 270 268 267 267 267 267 267 267 267 267
289 288 287 286 285 285 285 286 284 282 282 282 281 281 281 279 278 277 276 276 275 275 275 275 275 274 274 272 271 270 269 268 268 267 267 266 267 267 266 266 266 266 266
288 287 287 286 285 285 284 284 282 282 282 282 281 281 280 280 278 277 277 276 275 275 275 275 275 275 274 272 271 269 268 268 267 267 267 267 267 267 266 266 265 265 265
287 287 287 286 285 284 283 283 282 282 282 282 281 281 280 279 278 277 275 276 274 273 274 274 274 274 274 273 272 270 269 268 267 267 267 266 266 266 266 266 265 264 264

GFSMW_925_thetae_159.txt.gz
Theta_e
329 329 325 322 320 321 322 319 318 316 315 313 312 310 308 306 305 305 304 304 304 304 305 305 305 305 305 305 305 305 305 307 306 308 308 311 314 316 316 317 314 312 311
328 328 323 320 319 319 320 319 317 316 315 314 313 311 308 306 305 304 303 303 303 302 302 303 304 303 304 304 303 303 304 306 305 304 308 313 314 311 312 314 312 311 309
327 327 322 319 318 318 319 318 317 316 315 314 311 308 306 304 304 304 303 302 301 301 302 301 302 302 302 302 301 301 302 303 303 303 304 309 311 307 310 310 309 308 305
325 326 322 319 318 317 317 317 316 315 314 311 310 308 306 306 306 304 302 301 300 300 300 300 300 300 300 300 299 299 300 300 302 302 302 303 303 306 307 306 306 303 303
324 325 322 319 317 316 316 315 315 314 312 311 310 309 307 307 304 303 302 301 299 298 298 298 298 297 297 297 297 297 298 298 299 300 299 300 303 302 302 305 304 303 302
322 324 322 319 317 315 314 314 313 312 311 310 310 309 307 305 304 303 303 301 299 297 296 296 295 295 295 295 295 295 295 296 296 297 297 297 298 298 299 300 301 300 301
321 323 322 319 316 314 313 312 312 311 310 309 308 307 306 304 304 303 302 300 297 296 294 295 294 293 292 293 293 293 294 294 295 295 295 296 295 295 296 296 297 298 299
320 321 321 318 315 313 311 310 309 308 307 306 305 305 303 303 302 300 299 297 295 293 293 293 292 292 291 292 292 293 292 293 293 293 293 294 294 294 294 294 294 297 298
319 319 318 316 314 311 310 308 307 305 304 304 302 302 301 300 298 297 295 293 292 291 291 292 291 290 290 290 291 291 291 292 291 292 291 292 292 292 292 292 293 293 296
317 317 317 315 313 311 309 308 306 304 303 302 301 300 298 297 295 294 293 292 290 291 291 290 289 289 289 289 289 289 289 290 289 289 290 289 290 291 291 291 291 292 292
317 316 316 314 313 311 309 307 305 303 301 300 299 297 296 295 293 292 292 291 291 290 290 289 288 288 288 288 288 288 288 289 289 288 288 288 288 289 290 289 290 290 291
314 316 316 314 313 311 308 306 304 301 299 298 296 295 294 294 293 292 291 291 290 290 289 289 288 287 287 287 287 287 287 287 287 287 287 286 286 287 287 288 288 288 288
312 313 314 314 312 310 307 303 300 299 298 297 296 294 294 294 293 292 291 290 290 289 288 288 287 287 287 286 286 286 286 286 285 286 285 284 284 285 285 285 286 286 286
311 311 312 312 310 308 306 302 300 299 298 296 295 294 292 293 292 291 290 289 289 289 288 287 286 286 285 285 285 285 285 285 284 284 283 281 280 279 280 283 283 283 284
312 311 311 312 310 309 306 304 301 300 299 297 296 294 292 291 290 289 289 288 288 288 288 287 286 286 284 283 285 285 284 284 284 283 282 280 278 276 276 277 278 279 281
309 309 310 311 311 309 307 306 303 300 299 296 295 290 289 289 289 288 288 288 287 287 287 286 286 285 281 279 282 284 284 283 282 282 282 281 278 278 276 275 275 275 276
308 307 308 309 309 310 308 307 305 302 298 297 290 289 288 288 287 287 287 287 286 286 284 284 284 282 279 277 278 281 282 280 280 279 280 280 278 276 277 276 276 275 275
309 309 311 311 310 309 308 306 303 299 296 291 288 287 287 286 286 286 284 284 283 283 283 282 282 281 279 277 276 278 279 279 279 279 278 278 277 274 274 275 276 275 275
300 301 304 307 308 306 305 302 299 296 292 289 287 287 286 285 284 283 283 283 282 282 282 281 281 281 278 276 276 279 280 279 278 277 275 276 275 273 273 275 275 275 274
299 296 300 304 304 303 301 299 296 292 290 288 287 286 285 284 282 282 282 282 282 282 282 281 281 281 278 276 275 279 279 279 278 277 277 273 273 273 273 274 275 274 274
299 301 297 300 300 300 297 294 292 291 289 287 286 285 284 283 282 282 282 282 282 282 281 281 280 280 279 276 275 277 279 279 278 278 277 274 272 272 272 272 272 272 274
302 301 299 295 295 296 294 291 290 290 288 286 285 284 283 282 282 282 282 282 282 282 281 281 280 280 279 276 274 275 276 276 278 277 275 272 271 271 271 271 272 273 275
303 302 301 296 293 292 291 290 289 287 286 285 284 283 282 282 282 282 282 282 281 281 282 281 281 280 279 277 274 273 272 275 276 275 273 270 269 270 272 271 272 274 275
302 301 299 295 293 292 290 289 287 286 285 285 284 283 283 283 283 282 282 282 282 282 282 282 282 281 280 278 276 274 272 272 273 271 271 271 272 272 272 273 273 273 273
301 300 298 296 293 291 289 286 286 286 286 285 284 284 284 283 283 283 283 283 282 282 282 282 282 281 281 280 279 277 276 276 275 273 274 275 276 275 275 274 273 273 273
301 298 296 295 292 289 288 286 286 286 287 286 285 285 284 283 283 283 282 281 281 280 280 281 281 279 280 278 276 275 274 274 272 274 276 276 276 276 275 275 274 273 272